Regional Weather Roundup
Issued by NWS Green Bay, WI

Home | Current Version | Previous Version | Graphics & Text | Print | Product List | Glossary Off
Versions: 1 2 3 4 5 6 7 8 9 10 11 12 13 14 15 16 17 18 19 20 21 22 23 24 25 26 27 28 29 30 31 32 33 34 35 36 37 38 39 40 41 42 43 44 45 46 47 48 49 50

000
ASUS43 KGRB 310410
RWRGRB

NORTH-CENTRAL AND NORTHEAST WISCONSIN REGIONAL WEATHER ROUNDUP
NATIONAL WEATHER SERVICE GREEN BAY WI
1100 PM CDT WED JUL 30 2014

WIZ005-009-010>012-018-019-310500-
NORTH CENTRAL WISCONSIN

CITY           SKY/WX    TMP DP  RH WIND       PRES   REMARKS
IRONWOOD       NOT AVBL
MANITOWISH WTR FOG       53  53 100 CALM      30.00S VSB 1
ARBOR VITAE    PTCLDY    57  49  74 CALM      30.00S
EAGLE RIVER    FOG       51  51 100 CALM      30.00S VSB<1/4
LAND O LAKES   FOG       53  53  99 CALM      30.01S VSB 1/4
RHINELANDER    CLEAR     52  51  97 CALM      30.01S
PHILLIPS       MOCLDY    59  58  94 CALM      30.00S
ANTIGO         CLEAR     54  53  95 CALM      30.01S
TOMAHAWK       FOG       54  52  95 CALM      30.01S VSB 1/2
MERRILL        CLEAR     58  58 100 CALM      30.00R FOG
$$

WIZ013-073-310500-
NORTHEAST WISCONSIN

CITY           SKY/WX    TMP DP  RH WIND       PRES   REMARKS
IRON MOUNTAIN  MOCLDY    57  55  93 CALM      29.97S
MARINETTE      CLOUDY    57  55  94 CALM      29.96S
OCONTO         CLOUDY    59  59 100 CALM      29.97S
$$

WIZ017-030-035>037-045-310500-
CENTRAL WISCONSIN

CITY           SKY/WX    TMP DP  RH WIND       PRES   REMARKS
MEDFORD        LGT RAIN  60  58  91 SW3       30.02R
WAUSAU         PTCLDY    63  59  87 N5        29.99R
MOSINEE        PTCLDY    61  59  94 W6        30.01S
MARSHFIELD     LGT RAIN  61  58  90 W6        30.02R FOG
WISC RAPIDS    MOCLDY    64  59  83 W9        30.02S
STEVENS POINT  PTCLDY    61  58  91 W5        30.01S
WAUPACA        MOCLDY    66  57  73 N6        30.00S
SHAWANO        PTCLDY    61  58  92 CALM      29.98F
CLINTONVILLE   PTCLDY    57  54  88 CALM      29.99F
$$

WIZ038-039-048-051-310500-
FOX VALLEY

CITY           SKY/WX    TMP DP  RH WIND       PRES   REMARKS
NWS GREEN BAY  MOCLDY    60  59  96 SW6       29.98F
APPLETON       PTCLDY    63  55  77 VRB5      30.00R
OSHKOSH        MOCLDY    66  55  67 SW6       29.98F
FOND DU LAC    PTCLDY    63  55  75 SW6       30.00F
$$

WIZ022-050-052-310500-
EAST CENTRAL WISCONSIN

CITY           SKY/WX    TMP DP  RH WIND       PRES   REMARKS
STURGEON BAY   CLOUDY    61  54  77 SW7       29.97S
MANITOWOC      LGT RAIN  61  54  77 W7        29.99F
SHEBOYGAN      PTCLDY    57  53  86 S3        29.99F
$$

LMZ563-521-522-541>543-310500-
LAKESHORE

STATION/POSITION TIME  TEMP    WIND        PRES    VSBY  WAVE
                       AIR SEA DIR/SP/G                  HT/PER
                 (UTC) (F)     (DEG/KT/KT) (MB)    (MI)  (FT/S)
SHEBOYGAN LKSHOR 0400   63     190/ 10/ 10 1015.7F
KEWAUNEE LKSHORE 0400   62     250/  4/  8 1014.3F
ALGOMA MARINA    0400          260/  7/ 11   N/A
NORTHPORT PIER   0400   59     230/  4/  4 1014.6S
N MID LAKE BUOY  0400   57 54  210/  8/ 10 1013.9F         1
S GREEN BAY BUOY 0400   64 66  280/  8     1015.7R
SISTER BAY LKSHO 0400   59     140/  5/  6   N/A
CHAMBERS ISLAND  0400   61     290/  4/  6 1014.9S
MENOMINEE LKSHOR 0400   61     280/  4/  8 1015.3R
$$


USA.gov is the U.S. government's official web portal to all federal, state and local government web resources and services.